Time,TemperatureF,DewpointF,PressureIn,WindDirection,WindDirectionDegrees,WindSpeedMPH,WindSpeedGustMPH,Humidity,HourlyPrecipIn,Conditions,Clouds,dailyrainin,SoftwareType,DateUTC
2013-02-17 00:02:00,29.0,22.0,29.64,NE,39,6.0,8.0,74,0.00,,,0.00,,2013-02-17 05:02:00,
2013-02-17 00:12:00,29.0,22.0,29.64,NE,45,5.0,8.0,74,0.00,,,0.00,,2013-02-17 05:12:00,
2013-02-17 00:22:00,29.0,22.0,29.64,NE,45,5.0,8.0,74,0.00,,,0.00,,2013-02-17 05:22:00,
2013-02-17 00:33:00,29.0,22.0,29.64,NNE,30,7.0,9.0,76,0.00,,,0.00,,2013-02-17 05:33:00,
2013-02-17 00:42:00,29.0,22.0,29.64,NNE,30,7.0,9.0,76,0.00,,,0.00,,2013-02-17 05:42:00,
2013-02-17 00:52:00,28.0,22.0,29.63,NE,38,8.0,10.0,77,0.00,,,0.00,,2013-02-17 05:52:00,
2013-02-17 01:02:00,28.0,22.0,29.64,NNE,33,6.0,8.0,78,0.00,,,0.00,,2013-02-17 06:02:00,
2013-02-17 01:11:00,28.0,22.0,29.64,NNE,33,6.0,8.0,78,0.00,,,0.00,,2013-02-17 06:11:00,
2013-02-17 01:21:00,28.0,22.0,29.63,NE,45,5.0,10.0,78,0.00,,,0.00,,2013-02-17 06:21:00,
2013-02-17 01:32:00,28.0,22.0,29.64,NNE,32,7.0,9.0,78,0.00,,,0.00,,2013-02-17 06:32:00,
2013-02-17 01:42:00,28.0,22.0,29.64,NNE,32,7.0,9.0,78,0.00,,,0.00,,2013-02-17 06:42:00,
2013-02-17 01:51:00,27.0,22.0,29.61,NNE,33,5.0,7.0,80,0.00,,,0.00,,2013-02-17 06:51:00,
2013-02-17 02:01:00,27.0,22.0,29.60,NNE,33,8.0,8.0,81,0.00,,,0.00,,2013-02-17 07:01:00,
2013-02-17 02:11:00,26.0,21.0,29.60,NNE,22,8.0,11.0,82,0.00,,,0.00,,2013-02-17 07:11:00,
2013-02-17 02:21:00,26.0,21.0,29.60,NNE,22,8.0,11.0,82,0.00,,,0.00,,2013-02-17 07:21:00,
2013-02-17 02:32:00,25.0,20.0,29.60,NE,39,6.0,8.0,82,0.00,,,0.00,,2013-02-17 07:32:00,
2013-02-17 02:42:00,25.0,20.0,29.60,NE,39,6.0,8.0,82,0.00,,,0.00,,2013-02-17 07:42:00,
2013-02-17 02:52:00,25.0,21.0,29.60,NNE,28,6.0,8.0,83,0.00,,,0.00,,2013-02-17 07:52:00,
2013-02-17 03:01:00,25.0,21.0,29.59,NNE,23,7.0,11.0,83,0.00,,,0.00,,2013-02-17 08:01:00,
2013-02-17 03:11:00,25.0,21.0,29.59,NNE,23,7.0,11.0,83,0.00,,,0.00,,2013-02-17 08:11:00,
2013-02-17 03:21:00,24.0,20.0,29.57,NE,39,9.0,11.0,83,0.00,,,0.00,,2013-02-17 08:21:00,
2013-02-17 03:32:00,23.0,19.0,29.57,NE,35,7.0,10.0,83,0.00,,,0.00,,2013-02-17 08:32:00,
2013-02-17 03:42:00,23.0,19.0,29.57,NE,35,7.0,10.0,83,0.00,,,0.00,,2013-02-17 08:42:00,
2013-02-17 03:52:00,23.0,19.0,29.57,NNE,23,4.0,9.0,83,0.00,,,0.00,,2013-02-17 08:52:00,
2013-02-17 04:02:00,23.0,19.0,29.56,NE,40,6.0,9.0,83,0.00,,,0.00,,2013-02-17 09:02:00,
2013-02-17 04:11:00,23.0,19.0,29.56,NE,40,6.0,9.0,83,0.00,,,0.00,,2013-02-17 09:11:00,
2013-02-17 04:21:00,22.0,17.0,29.56,NNE,27,5.0,8.0,82,0.00,,,0.00,,2013-02-17 09:21:00,
2013-02-17 04:31:00,22.0,17.0,29.56,NNE,32,7.0,11.0,81,0.00,,,0.00,,2013-02-17 09:31:00,
2013-02-17 04:42:00,22.0,17.0,29.56,NNE,32,7.0,11.0,81,0.00,,,0.00,,2013-02-17 09:42:00,
2013-02-17 04:52:00,22.0,17.0,29.54,NNE,15,5.0,8.0,80,0.00,,,0.00,,2013-02-17 09:52:00,
2013-02-17 05:01:00,22.0,16.0,29.55,NNE,23,3.0,9.0,79,0.00,,,0.00,,2013-02-17 10:01:00,
2013-02-17 05:11:00,22.0,16.0,29.55,NNE,23,3.0,9.0,79,0.00,,,0.00,,2013-02-17 10:11:00,
2013-02-17 05:21:00,21.0,15.0,29.55,NNE,22,7.0,9.0,78,0.00,,,0.00,,2013-02-17 10:21:00,
2013-02-17 05:32:00,21.0,16.0,29.54,NNE,17,6.0,8.0,79,0.00,,,0.00,,2013-02-17 10:32:00,
2013-02-17 05:42:00,21.0,16.0,29.54,NNE,17,6.0,8.0,79,0.00,,,0.00,,2013-02-17 10:42:00,
2013-02-17 05:52:00,20.0,15.0,29.53,NNE,32,6.0,8.0,82,0.00,,,0.00,,2013-02-17 10:52:00,
2013-02-17 06:01:00,20.0,16.0,29.51,NNE,23,6.0,7.0,83,0.00,,,0.00,,2013-02-17 11:01:00,
2013-02-17 06:11:00,20.0,16.0,29.51,NNE,23,6.0,7.0,83,0.00,,,0.00,,2013-02-17 11:11:00,
2013-02-17 06:21:00,20.0,16.0,29.51,NE,45,1.0,10.0,83,0.00,,,0.00,,2013-02-17 11:21:00,
2013-02-17 06:32:00,19.0,15.0,29.50,NNE,18,4.0,9.0,83,0.00,,,0.00,,2013-02-17 11:32:00,
2013-02-17 06:42:00,19.0,15.0,29.50,NNE,18,4.0,9.0,83,0.00,,,0.00,,2013-02-17 11:42:00,
2013-02-17 06:52:00,19.0,15.0,29.49,NE,45,6.0,9.0,84,0.00,,,0.00,,2013-02-17 11:52:00,
2013-02-17 07:03:00,19.0,15.0,29.50,North,6,7.0,8.0,84,0.00,,,0.00,,2013-02-17 12:03:00,
2013-02-17 07:11:00,19.0,15.0,29.50,North,6,7.0,8.0,84,0.00,,,0.00,,2013-02-17 12:11:00,
2013-02-17 07:22:00,19.0,15.0,29.50,North,6,7.0,8.0,84,0.00,,,0.00,,2013-02-17 12:22:00,
2013-02-17 07:32:00,19.0,15.0,29.48,NNE,25,5.0,10.0,84,0.00,,,0.00,,2013-02-17 12:32:00,
2013-02-17 07:42:00,19.0,15.0,29.48,NNE,25,5.0,10.0,84,0.00,,,0.00,,2013-02-17 12:42:00,
2013-02-17 07:52:00,19.0,15.0,29.47,NNW,347,7.0,10.0,84,0.00,,,0.00,,2013-02-17 12:52:00,
2013-02-17 08:02:00,19.0,15.0,29.47,NE,39,7.0,10.0,83,0.00,,,0.00,,2013-02-17 13:02:00,
2013-02-17 08:12:00,19.0,15.0,29.47,NE,39,7.0,10.0,83,0.00,,,0.00,,2013-02-17 13:12:00,
2013-02-17 08:22:00,19.0,14.0,29.46,North,4,8.0,12.0,82,0.00,,,0.00,,2013-02-17 13:22:00,
2013-02-17 08:32:00,19.0,14.0,29.46,NNE,30,7.0,11.0,81,0.00,,,0.00,,2013-02-17 13:32:00,
2013-02-17 08:42:00,19.0,14.0,29.46,NNE,30,7.0,11.0,81,0.00,,,0.00,,2013-02-17 13:42:00,
2013-02-17 08:51:00,19.0,13.0,29.44,North,359,4.0,8.0,78,0.00,,,0.00,,2013-02-17 13:51:00,
2013-02-17 09:01:00,20.0,13.0,29.43,NNW,344,6.0,9.0,75,0.00,,,0.00,,2013-02-17 14:01:00,
2013-02-17 09:11:00,20.0,13.0,29.43,NNW,344,6.0,9.0,75,0.00,,,0.00,,2013-02-17 14:11:00,
2013-02-17 09:22:00,20.0,12.0,29.43,NE,37,7.0,12.0,70,0.00,,,0.00,,2013-02-17 14:22:00,
2013-02-17 09:32:00,21.0,11.0,29.43,NNW,328,5.0,8.0,66,0.00,,,0.00,,2013-02-17 14:32:00,
2013-02-17 09:42:00,21.0,11.0,29.43,NNW,328,5.0,8.0,66,0.00,,,0.00,,2013-02-17 14:42:00,
2013-02-17 09:52:00,22.0,11.0,29.42,West,277,5.0,10.0,62,0.00,,,0.00,,2013-02-17 14:52:00,
2013-02-17 10:02:00,22.0,10.0,29.42,NNE,16,8.0,12.0,58,0.00,,,0.00,,2013-02-17 15:02:00,
2013-02-17 10:11:00,22.0,10.0,29.42,NNE,16,8.0,12.0,58,0.00,,,0.00,,2013-02-17 15:11:00,
2013-02-17 10:21:00,23.0,9.0,29.43,NNW,341,7.0,10.0,55,0.00,,,0.00,,2013-02-17 15:21:00,
2013-02-17 10:32:00,23.0,9.0,29.42,NE,34,5.0,10.0,55,0.00,,,0.00,,2013-02-17 15:32:00,
2013-02-17 10:42:00,23.0,9.0,29.42,NE,34,5.0,10.0,55,0.00,,,0.00,,2013-02-17 15:42:00,
2013-02-17 10:52:00,24.0,9.0,29.42,NNE,15,5.0,16.0,51,0.00,,,0.00,,2013-02-17 15:52:00,
2013-02-17 11:01:00,24.0,9.0,29.42,NNW,345,11.0,14.0,51,0.00,,,0.00,,2013-02-17 16:01:00,
2013-02-17 11:12:00,24.0,9.0,29.42,NNW,345,11.0,14.0,51,0.00,,,0.00,,2013-02-17 16:12:00,
2013-02-17 11:21:00,25.0,9.0,29.43,NNW,348,7.0,11.0,50,0.00,,,0.00,,2013-02-17 16:21:00,
2013-02-17 11:32:00,25.0,8.0,29.43,NNW,334,6.0,13.0,48,0.00,,,0.00,,2013-02-17 16:32:00,
2013-02-17 11:42:00,25.0,8.0,29.43,NNW,334,6.0,13.0,48,0.00,,,0.00,,2013-02-17 16:42:00,
2013-02-17 11:51:00,25.0,8.0,29.44,NNE,31,6.0,14.0,47,0.00,,,0.00,,2013-02-17 16:51:00,
2013-02-17 12:02:00,25.0,8.0,29.43,NW,323,7.0,9.0,47,0.00,,,0.00,,2013-02-17 17:02:00,
2013-02-17 12:11:00,25.0,8.0,29.43,NW,323,7.0,9.0,47,0.00,,,0.00,,2013-02-17 17:11:00,
2013-02-17 12:21:00,26.0,9.0,29.43,NNW,338,7.0,11.0,47,0.00,,,0.00,,2013-02-17 17:21:00,
2013-02-17 12:32:00,26.0,9.0,29.43,WNW,302,8.0,10.0,47,0.00,,,0.00,,2013-02-17 17:32:00,
2013-02-17 12:42:00,26.0,9.0,29.43,WNW,302,8.0,10.0,47,0.00,,,0.00,,2013-02-17 17:42:00,
2013-02-17 12:52:00,27.0,9.0,29.43,NW,309,7.0,11.0,46,0.00,,,0.00,,2013-02-17 17:52:00,
2013-02-17 13:02:00,27.0,9.0,29.43,NW,309,7.0,11.0,46,0.00,,,0.00,,2013-02-17 18:02:00,
2013-02-17 13:11:00,27.0,9.0,29.43,NW,309,7.0,11.0,46,0.00,,,0.00,,2013-02-17 18:11:00,
2013-02-17 13:22:00,27.0,9.0,29.45,NNW,332,9.0,11.0,46,0.00,,,0.00,,2013-02-17 18:22:00,
2013-02-17 13:33:00,26.0,8.0,29.46,North,353,8.0,11.0,46,0.00,,,0.00,,2013-02-17 18:33:00,
2013-02-17 13:42:00,26.0,8.0,29.46,North,353,8.0,11.0,46,0.00,,,0.00,,2013-02-17 18:42:00,
2013-02-17 13:52:00,26.0,8.0,29.46,WNW,286,8.0,10.0,45,0.00,,,0.00,,2013-02-17 18:52:00,
2013-02-17 14:01:00,26.0,7.0,29.47,NNE,19,7.0,12.0,44,0.00,,,0.00,,2013-02-17 19:01:00,
2013-02-17 14:11:00,26.0,7.0,29.47,NNE,19,7.0,12.0,44,0.00,,,0.00,,2013-02-17 19:11:00,
2013-02-17 14:21:00,26.0,7.0,29.47,NNE,19,7.0,12.0,44,0.00,,,0.00,,2013-02-17 19:21:00,
2013-02-17 14:32:00,26.0,7.0,29.47,WNW,301,8.0,11.0,43,0.00,,,0.00,,2013-02-17 19:32:00,
2013-02-17 14:42:00,26.0,7.0,29.47,WNW,301,8.0,11.0,43,0.00,,,0.00,,2013-02-17 19:42:00,
2013-02-17 14:51:00,26.0,7.0,29.48,North,352,8.0,13.0,43,0.00,,,0.00,,2013-02-17 19:51:00,
2013-02-17 15:02:00,27.0,8.0,29.48,WNW,293,5.0,11.0,43,0.00,,,0.00,,2013-02-17 20:02:00,
2013-02-17 15:11:00,27.0,8.0,29.48,WNW,293,5.0,11.0,43,0.00,,,0.00,,2013-02-17 20:11:00,
2013-02-17 15:22:00,27.0,7.0,29.48,NW,319,5.0,8.0,42,0.00,,,0.00,,2013-02-17 20:22:00,
2013-02-17 15:32:00,27.0,7.0,29.49,NW,326,3.0,7.0,42,0.00,,,0.00,,2013-02-17 20:32:00,
2013-02-17 15:42:00,27.0,7.0,29.49,NW,326,3.0,7.0,42,0.00,,,0.00,,2013-02-17 20:42:00,
2013-02-17 15:52:00,28.0,8.0,29.49,WNW,301,2.0,6.0,42,0.00,,,0.00,,2013-02-17 20:52:00,
2013-02-17 16:02:00,28.0,8.0,29.49,West,275,5.0,9.0,42,0.00,,,0.00,,2013-02-17 21:02:00,
2013-02-17 16:11:00,28.0,8.0,29.49,West,275,5.0,9.0,42,0.00,,,0.00,,2013-02-17 21:11:00,
2013-02-17 16:21:00,27.0,8.0,29.51,WNW,300,5.0,11.0,43,0.00,,,0.00,,2013-02-17 21:21:00,
2013-02-17 16:32:00,26.0,7.0,29.51,NW,323,9.0,12.0,43,0.00,,,0.00,,2013-02-17 21:32:00,
2013-02-17 16:42:00,26.0,7.0,29.51,NW,323,9.0,12.0,43,0.00,,,0.00,,2013-02-17 21:42:00,
2013-02-17 16:53:00,26.0,6.0,29.52,NW,306,6.0,12.0,42,0.00,,,0.00,,2013-02-17 21:53:00,
2013-02-17 17:01:00,24.0,5.0,29.53,West,277,5.0,9.0,43,0.00,,,0.00,,2013-02-17 22:01:00,
2013-02-17 17:12:00,24.0,5.0,29.53,West,277,5.0,9.0,43,0.00,,,0.00,,2013-02-17 22:12:00,
2013-02-17 17:22:00,24.0,5.0,29.54,WNW,282,6.0,18.0,43,0.00,,,0.00,,2013-02-17 22:22:00,
2013-02-17 17:32:00,22.0,3.0,29.55,NW,318,5.0,15.0,44,0.00,,,0.00,,2013-02-17 22:32:00,
2013-02-17 17:42:00,22.0,3.0,29.55,NW,318,5.0,15.0,44,0.00,,,0.00,,2013-02-17 22:42:00,
2013-02-17 17:52:00,22.0,3.0,29.56,West,270,1.0,9.0,44,0.00,,,0.00,,2013-02-17 22:52:00,
2013-02-17 18:02:00,22.0,4.0,29.57,NNW,333,7.0,8.0,45,0.00,,,0.00,,2013-02-17 23:02:00,
2013-02-17 18:11:00,22.0,4.0,29.57,NNW,333,7.0,8.0,45,0.00,,,0.00,,2013-02-17 23:11:00,
2013-02-17 18:21:00,21.0,4.0,29.58,WNW,286,5.0,9.0,46,0.00,,,0.00,,2013-02-17 23:21:00,
2013-02-17 18:32:00,20.0,3.0,29.59,West,275,6.0,8.0,46,0.00,,,0.00,,2013-02-17 23:32:00,
2013-02-17 18:42:00,20.0,3.0,29.59,West,275,6.0,8.0,46,0.00,,,0.00,,2013-02-17 23:42:00,
2013-02-17 18:52:00,20.0,3.0,29.59,NNW,347,5.0,11.0,46,0.00,,,0.00,,2013-02-17 23:52:00,
2013-02-17 19:02:00,20.0,3.0,29.60,NW,309,5.0,9.0,47,0.00,,,0.00,,2013-02-18 00:02:00,
2013-02-17 19:11:00,20.0,3.0,29.60,NW,309,5.0,9.0,47,0.00,,,0.00,,2013-02-18 00:11:00,
2013-02-17 19:22:00,19.0,2.0,29.61,NW,322,5.0,9.0,47,0.00,,,0.00,,2013-02-18 00:22:00,
2013-02-17 19:32:00,19.0,2.0,29.61,NW,322,5.0,9.0,47,0.00,,,0.00,,2013-02-18 00:32:00,
2013-02-17 19:41:00,19.0,2.0,29.61,NW,322,5.0,9.0,47,0.00,,,0.00,,2013-02-18 00:41:00,
2013-02-17 19:52:00,19.0,3.0,29.62,WNW,285,4.0,8.0,48,0.00,,,0.00,,2013-02-18 00:52:00,
2013-02-17 20:01:00,18.0,2.0,29.63,West,278,6.0,11.0,48,0.00,,,0.00,,2013-02-18 01:01:00,
2013-02-17 20:12:00,18.0,2.0,29.63,West,278,6.0,11.0,48,0.00,,,0.00,,2013-02-18 01:12:00,
2013-02-17 20:21:00,18.0,2.0,29.64,WNW,301,6.0,8.0,49,0.00,,,0.00,,2013-02-18 01:21:00,
2013-02-17 20:32:00,18.0,3.0,29.63,West,270,7.0,8.0,50,0.00,,,0.00,,2013-02-18 01:32:00,
2013-02-17 20:42:00,18.0,3.0,29.63,West,270,7.0,8.0,50,0.00,,,0.00,,2013-02-18 01:42:00,
2013-02-17 20:51:00,17.0,2.0,29.64,WNW,290,8.0,15.0,50,0.00,,,0.00,,2013-02-18 01:51:00,
2013-02-17 21:02:00,17.0,1.0,29.65,NNE,25,5.0,17.0,49,0.00,,,0.00,,2013-02-18 02:02:00,
2013-02-17 21:11:00,17.0,1.0,29.65,NNE,25,5.0,17.0,49,0.00,,,0.00,,2013-02-18 02:11:00,
2013-02-17 21:22:00,17.0,2.0,29.65,WNW,294,7.0,9.0,50,0.00,,,0.00,,2013-02-18 02:22:00,
2013-02-17 21:32:00,16.0,1.0,29.66,NW,312,6.0,12.0,51,0.00,,,0.00,,2013-02-18 02:32:00,
2013-02-17 21:42:00,16.0,1.0,29.66,NW,312,6.0,12.0,51,0.00,,,0.00,,2013-02-18 02:42:00,
2013-02-17 21:52:00,16.0,1.0,29.67,WNW,295,4.0,8.0,51,0.00,,,0.00,,2013-02-18 02:52:00,
2013-02-17 22:02:00,16.0,2.0,29.67,NNW,340,9.0,12.0,52,0.00,,,0.00,,2013-02-18 03:02:00,
2013-02-17 22:11:00,16.0,2.0,29.67,NNW,340,9.0,12.0,52,0.00,,,0.00,,2013-02-18 03:11:00,
2013-02-17 22:21:00,15.0,1.0,29.68,WNW,285,5.0,8.0,52,0.00,,,0.00,,2013-02-18 03:21:00,
2013-02-17 22:32:00,15.0,1.0,29.68,WNW,285,5.0,8.0,52,0.00,,,0.00,,2013-02-18 03:32:00,
2013-02-17 22:42:00,15.0,1.0,29.68,WNW,285,5.0,8.0,52,0.00,,,0.00,,2013-02-18 03:42:00,
2013-02-17 22:52:00,15.0,1.0,29.68,West,278,7.0,13.0,53,0.00,,,0.00,,2013-02-18 03:52:00,
2013-02-17 23:01:00,14.0,0.0,29.69,WNW,293,6.0,11.0,53,0.00,,,0.00,,2013-02-18 04:01:00,
2013-02-17 23:11:00,14.0,0.0,29.69,WNW,293,6.0,11.0,53,0.00,,,0.00,,2013-02-18 04:11:00,
2013-02-17 23:21:00,14.0,0.0,29.70,WNW,284,6.0,11.0,53,0.00,,,0.00,,2013-02-18 04:21:00,
2013-02-17 23:32:00,14.0,0.0,29.70,North,9,6.0,7.0,54,0.00,,,0.00,,2013-02-18 04:32:00,
2013-02-17 23:42:00,14.0,0.0,29.70,North,9,6.0,7.0,54,0.00,,,0.00,,2013-02-18 04:42:00,
2013-02-17 23:52:00,14.0,0.0,29.71,WNW,293,4.0,9.0,54,0.00,,,0.00,,2013-02-18 04:52:00,